{"data":{"norad_id":5398,"intl_designator":"1971-067E","name":"RIGIDSPHERE 2 (LCS 4)","alt_names":[],"object_type":"PAYLOAD","status":"ACTIVE","operator":null,"country":"US","launch_date":"1971-08-07","launch_site_code":"AFWTR","launch_vehicle":null,"mission":null,"orbit_class":"UNKNOWN","rcs_meters":0.9548,"size_class":null,"mass_kg":null,"dimensions":null,"purposes":["military"],"wikipedia_slug":null,"has_3d_model":false,"image_url":null,"decayed_at":null,"tle_current":{"epoch":"2026-09-20T04:21:27.103680Z","epoch_age_seconds":38708,"freshness":"FRESH","line1":"1 05398U 71067E   26263.18156370  .00000349  00000+0  10766-3 0  9994","line2":"2 05398  87.6204 312.4428 0057429 277.8368  81.6314 14.37959703887538","mean_motion":14.37959703,"eccentricity":0.0057429,"inclination_deg":87.6204,"raan_deg":312.4428,"arg_perigee_deg":277.8368,"mean_anomaly_deg":81.6314,"bstar":0.00010766,"rev_number":88753,"period_min":100.1418883294,"perigee_km":724.22381897559,"apogee_km":806.27130537986,"semimajor_km":7143.3845621777,"source":"CELESTRAK","updated_at":"2026-09-20T09:00:47.876468Z"}}}